Location: Archamps
(46.1365°N, 6.1329°E)
Time: 11:02:37
(UTC+00:00)

In-Cosmos 22 Rocket - Pass Details

Date: 28 January 2023
Orbit: 789 x 888 km, 81.2° (Epoch: 01 April)

Event Time Altitude Azimuth Distance (km) Brightness Sun altitude
Rises 18:20:20 0° 170° (S) 3,440 7.3 -18.4°
Reaches altitude 10° 18:22:50 10° 164° (SSE) 2,519 6.6 -18.8°
Maximum altitude 18:28:16 46° 93° (E) 1,176 4.5 -19.8°
Enters shadow 18:33:15 13° 24° (NNE) 2,365 6.2 -20.6°
